Year,Month,Day,Hour,Minute,Value (Times are PST for temperature in C)
2009,07,01,00,00,12.90
2009,07,01,00,01,13.00
2009,07,01,00,02,13.10
2009,07,01,00,03,13.10
2009,07,01,00,04,13.10
2009,07,01,00,05,13.10
2009,07,01,00,06,13.10
2009,07,01,00,07,13.20
2009,07,01,00,08,13.20
2009,07,01,00,09,13.20
2009,07,01,00,10,13.30
2009,07,01,00,11,13.30
2009,07,01,00,12,13.30
2009,07,01,00,13,13.30
2009,07,01,00,14,13.30
2009,07,01,00,15,13.30
2009,07,01,00,16,13.20
2009,07,01,00,17,13.20
2009,07,01,00,18,13.20
2009,07,01,00,19,13.10
2009,07,01,00,20,13.10
2009,07,01,00,21,13.00
2009,07,01,00,22,13.00
2009,07,01,00,23,13.00
2009,07,01,00,24,12.90
2009,07,01,00,25,12.80
2009,07,01,00,26,12.80
2009,07,01,00,27,12.80
2009,07,01,00,28,12.70
2009,07,01,00,29,12.70
2009,07,01,00,30,12.60
2009,07,01,00,31,12.60
2009,07,01,00,32,12.50
2009,07,01,00,33,12.50
2009,07,01,00,34,12.50
2009,07,01,00,35,12.40
2009,07,01,00,36,12.40
2009,07,01,00,37,12.40
2009,07,01,00,38,12.40
2009,07,01,00,39,12.40
2009,07,01,00,40,12.40
2009,07,01,00,41,12.40
2009,07,01,00,42,12.40
2009,07,01,00,43,12.40
2009,07,01,00,44,12.40
2009,07,01,00,45,12.40
2009,07,01,00,46,12.40
2009,07,01,00,47,12.40
2009,07,01,00,48,12.40
2009,07,01,00,49,12.40
2009,07,01,00,50,12.50
2009,07,01,00,51,12.60
2009,07,01,00,52,12.70
2009,07,01,00,53,12.70
2009,07,01,00,54,12.70
2009,07,01,00,55,12.70
2009,07,01,00,56,12.70
2009,07,01,00,57,12.60
2009,07,01,00,58,12.60
2009,07,01,00,59,12.50
2009,07,01,01,00,12.40
2009,07,01,01,01,12.40
2009,07,01,01,02,12.40
2009,07,01,01,03,12.40
2009,07,01,01,04,12.40
2009,07,01,01,05,12.40
2009,07,01,01,06,12.50
2009,07,01,01,07,12.60
2009,07,01,01,08,12.60
2009,07,01,01,09,12.70
2009,07,01,01,10,12.70
2009,07,01,01,11,12.80
2009,07,01,01,12,12.80
2009,07,01,01,13,12.80
2009,07,01,01,14,12.90
2009,07,01,01,15,12.90
2009,07,01,01,16,12.90
2009,07,01,01,17,12.90
2009,07,01,01,18,12.90
2009,07,01,01,19,13.00
2009,07,01,01,20,13.00
2009,07,01,01,21,13.00
2009,07,01,01,22,13.00
2009,07,01,01,23,12.90
2009,07,01,01,24,13.00
2009,07,01,01,25,13.00
2009,07,01,01,26,13.20
2009,07,01,01,27,13.40
2009,07,01,01,28,13.60
2009,07,01,01,29,13.70
2009,07,01,01,30,13.80
2009,07,01,01,31,13.90
2009,07,01,01,32,14.10
2009,07,01,01,33,14.20
2009,07,01,01,34,14.20
2009,07,01,01,35,14.30
2009,07,01,01,36,14.40
2009,07,01,01,37,14.50
2009,07,01,01,38,14.50
2009,07,01,01,39,14.60
2009,07,01,01,40,14.60
2009,07,01,01,41,14.60
2009,07,01,01,42,14.50
2009,07,01,01,43,14.30
2009,07,01,01,44,14.10
2009,07,01,01,45,13.90
2009,07,01,01,46,13.60
2009,07,01,01,47,13.30
2009,07,01,01,48,13.10
2009,07,01,01,49,12.90
2009,07,01,01,50,12.70
2009,07,01,01,51,12.60
2009,07,01,01,52,12.50
2009,07,01,01,53,12.40
2009,07,01,01,54,12.30
2009,07,01,01,55,12.30
2009,07,01,01,56,12.20
2009,07,01,01,57,12.20
2009,07,01,01,58,12.10
2009,07,01,01,59,12.10
2009,07,01,02,00,12.10
2009,07,01,02,01,12.10
2009,07,01,02,02,12.10
2009,07,01,02,03,12.10
2009,07,01,02,04,12.10
2009,07,01,02,05,12.10
2009,07,01,02,06,12.10
2009,07,01,02,07,12.00
2009,07,01,02,08,12.00
2009,07,01,02,09,12.00
2009,07,01,02,10,12.00
2009,07,01,02,11,11.90
2009,07,01,02,12,11.90
2009,07,01,02,13,11.90
2009,07,01,02,14,11.90
2009,07,01,02,15,11.90
2009,07,01,02,16,11.90
2009,07,01,02,17,11.90
2009,07,01,02,18,11.90
2009,07,01,02,19,11.90
2009,07,01,02,20,11.80
2009,07,01,02,21,11.80
2009,07,01,02,22,11.80
2009,07,01,02,23,11.80
2009,07,01,02,24,11.80
2009,07,01,02,25,11.80
2009,07,01,02,26,11.80
2009,07,01,02,27,11.80
2009,07,01,02,28,11.80
2009,07,01,02,29,11.80
2009,07,01,02,30,11.80
2009,07,01,02,31,11.90
2009,07,01,02,32,11.90
2009,07,01,02,33,11.90
2009,07,01,02,34,11.80
2009,07,01,02,35,11.80
2009,07,01,02,36,11.80
2009,07,01,02,37,11.80
2009,07,01,02,38,11.80
2009,07,01,02,39,11.80
2009,07,01,02,40,11.80
2009,07,01,02,41,11.70
2009,07,01,02,42,11.70
2009,07,01,02,43,11.70
2009,07,01,02,44,11.80
2009,07,01,02,45,11.80
2009,07,01,02,46,11.90
2009,07,01,02,47,11.90
2009,07,01,02,48,12.00
2009,07,01,02,49,12.00
2009,07,01,02,50,12.00
2009,07,01,02,51,12.00
2009,07,01,02,52,12.10
2009,07,01,02,53,12.10
2009,07,01,02,54,12.10
2009,07,01,02,55,12.20
2009,07,01,02,56,12.20
2009,07,01,02,57,12.30
2009,07,01,02,58,12.30
2009,07,01,02,59,12.40
2009,07,01,03,00,12.40
2009,07,01,03,01,12.50
2009,07,01,03,02,12.50
2009,07,01,03,03,12.50
2009,07,01,03,04,12.50
2009,07,01,03,05,12.50
2009,07,01,03,06,12.50
2009,07,01,03,07,12.50
2009,07,01,03,08,12.50
2009,07,01,03,09,12.50
2009,07,01,03,10,12.50
2009,07,01,03,11,12.50
2009,07,01,03,12,12.50
2009,07,01,03,13,12.40
2009,07,01,03,14,12.40
2009,07,01,03,15,12.30
2009,07,01,03,16,12.30
2009,07,01,03,17,12.20
2009,07,01,03,18,12.10
2009,07,01,03,19,11.90
2009,07,01,03,20,11.80
2009,07,01,03,21,11.80
2009,07,01,03,22,11.80
2009,07,01,03,23,11.70
2009,07,01,03,24,11.70
2009,07,01,03,25,11.70
2009,07,01,03,26,11.70
2009,07,01,03,27,11.70
2009,07,01,03,28,11.70
2009,07,01,03,29,11.70
2009,07,01,03,30,11.70
2009,07,01,03,31,11.60
2009,07,01,03,32,11.60
2009,07,01,03,33,11.60
2009,07,01,03,34,11.60
2009,07,01,03,35,11.50
2009,07,01,03,36,11.40
2009,07,01,03,37,11.40
2009,07,01,03,38,11.40
2009,07,01,03,39,11.40
2009,07,01,03,40,11.40
2009,07,01,03,41,11.60
2009,07,01,03,42,11.60
2009,07,01,03,43,11.60
2009,07,01,03,44,11.60
2009,07,01,03,45,11.60
2009,07,01,03,46,11.60
2009,07,01,03,47,11.60
2009,07,01,03,48,11.60
2009,07,01,03,49,11.70
2009,07,01,03,50,11.70
2009,07,01,03,51,11.70
2009,07,01,03,52,11.70
2009,07,01,03,53,11.70
2009,07,01,03,54,11.70
2009,07,01,03,55,11.80
2009,07,01,03,56,11.80
2009,07,01,03,57,11.80
2009,07,01,03,58,11.80
2009,07,01,03,59,11.80
2009,07,01,04,00,11.80
2009,07,01,04,01,11.80
2009,07,01,04,02,11.90
2009,07,01,04,03,11.90
2009,07,01,04,04,11.90
2009,07,01,04,05,11.90
2009,07,01,04,06,11.90
2009,07,01,04,07,11.90
2009,07,01,04,08,11.90
2009,07,01,04,09,11.90
2009,07,01,04,10,11.90
2009,07,01,04,11,11.90
2009,07,01,04,12,11.90
2009,07,01,04,13,11.90
2009,07,01,04,14,11.90
2009,07,01,04,15,12.00
2009,07,01,04,16,12.00
2009,07,01,04,17,12.00
2009,07,01,04,18,12.10
2009,07,01,04,19,12.10
2009,07,01,04,20,12.20
2009,07,01,04,21,12.20
2009,07,01,04,22,12.20
2009,07,01,04,23,12.20
2009,07,01,04,24,12.20
2009,07,01,04,25,12.20
2009,07,01,04,26,12.20
2009,07,01,04,27,12.10
2009,07,01,04,28,12.10
2009,07,01,04,29,12.10
2009,07,01,04,30,12.10
2009,07,01,04,31,12.10
2009,07,01,04,32,12.10
2009,07,01,04,33,12.10
2009,07,01,04,34,12.10
2009,07,01,04,35,12.10
2009,07,01,04,36,12.10
2009,07,01,04,37,12.00
2009,07,01,04,38,12.00
2009,07,01,04,39,12.10
2009,07,01,04,40,12.20
2009,07,01,04,41,12.30
2009,07,01,04,42,12.40
2009,07,01,04,43,12.40
2009,07,01,04,44,12.50
2009,07,01,04,45,12.60
2009,07,01,04,46,12.60
2009,07,01,04,47,12.70
2009,07,01,04,48,12.70
2009,07,01,04,49,12.70
2009,07,01,04,50,12.70
2009,07,01,04,51,12.70
2009,07,01,04,52,12.60
2009,07,01,04,53,12.60
2009,07,01,04,54,12.50
2009,07,01,04,55,12.40
2009,07,01,04,56,12.30
2009,07,01,04,57,12.20
2009,07,01,04,58,12.10
2009,07,01,04,59,11.90
2009,07,01,05,00,11.80
2009,07,01,05,01,11.80
2009,07,01,05,02,11.70
2009,07,01,05,03,11.60
2009,07,01,05,04,11.60
2009,07,01,05,05,11.40
2009,07,01,05,06,11.40
2009,07,01,05,07,11.40
2009,07,01,05,08,11.40
2009,07,01,05,09,11.40
2009,07,01,05,10,11.40
2009,07,01,05,11,11.40
2009,07,01,05,12,11.40
2009,07,01,05,13,11.40
2009,07,01,05,14,11.40
2009,07,01,05,15,11.40
2009,07,01,05,16,11.40
2009,07,01,05,17,11.40
2009,07,01,05,18,11.40
2009,07,01,05,19,11.40
2009,07,01,05,20,11.40
2009,07,01,05,21,11.40
2009,07,01,05,22,11.30
2009,07,01,05,23,11.30
2009,07,01,05,24,11.20
2009,07,01,05,25,11.20
2009,07,01,05,26,11.10
2009,07,01,05,27,11.10
2009,07,01,05,28,11.10
2009,07,01,05,29,11.10
2009,07,01,05,30,11.10
2009,07,01,05,31,11.20
2009,07,01,05,32,11.20
2009,07,01,05,33,11.20
2009,07,01,05,34,11.20
2009,07,01,05,35,11.20
2009,07,01,05,36,11.20
2009,07,01,05,37,11.20
2009,07,01,05,38,11.20
2009,07,01,05,39,11.20
2009,07,01,05,40,11.20
2009,07,01,05,41,11.10
2009,07,01,05,42,11.10
2009,07,01,05,43,11.10
2009,07,01,05,44,11.10
2009,07,01,05,45,11.10
2009,07,01,05,46,11.10
2009,07,01,05,47,11.10
2009,07,01,05,48,11.10
2009,07,01,05,49,11.20
2009,07,01,05,50,11.20
2009,07,01,05,51,11.30
2009,07,01,05,52,11.30
2009,07,01,05,53,11.30
2009,07,01,05,54,11.40
2009,07,01,05,55,11.40
2009,07,01,05,56,11.40
2009,07,01,05,57,11.60
2009,07,01,05,58,11.60
2009,07,01,05,59,11.70
2009,07,01,06,00,11.70
2009,07,01,06,01,11.80
2009,07,01,06,02,11.90
2009,07,01,06,03,11.90
2009,07,01,06,04,12.00
2009,07,01,06,05,12.10
2009,07,01,06,06,12.20
2009,07,01,06,07,12.30
2009,07,01,06,08,12.40
2009,07,01,06,09,12.50
2009,07,01,06,10,12.60
2009,07,01,06,11,12.70
2009,07,01,06,12,12.80
2009,07,01,06,13,12.80
2009,07,01,06,14,12.90
2009,07,01,06,15,13.00
2009,07,01,06,16,13.00
2009,07,01,06,17,13.10
2009,07,01,06,18,13.10
2009,07,01,06,19,13.10
2009,07,01,06,20,13.20
2009,07,01,06,21,13.20
2009,07,01,06,22,13.20
2009,07,01,06,23,13.30
2009,07,01,06,24,13.30
2009,07,01,06,25,13.30
2009,07,01,06,26,13.30
2009,07,01,06,27,13.30
2009,07,01,06,28,13.30
2009,07,01,06,29,13.30
2009,07,01,06,30,13.30
2009,07,01,06,31,13.30
2009,07,01,06,32,13.30
2009,07,01,06,33,13.30
2009,07,01,06,34,13.30
2009,07,01,06,35,13.30
2009,07,01,06,36,13.30
2009,07,01,06,37,13.40
2009,07,01,06,38,13.40
2009,07,01,06,39,13.50
2009,07,01,06,40,13.50
2009,07,01,06,41,13.60
2009,07,01,06,42,13.60
2009,07,01,06,43,13.70
2009,07,01,06,44,13.70
2009,07,01,06,45,13.80
2009,07,01,06,46,13.90
2009,07,01,06,47,13.90
2009,07,01,06,48,13.90
2009,07,01,06,49,14.00
2009,07,01,06,50,14.00
2009,07,01,06,51,14.10
2009,07,01,06,52,14.10
2009,07,01,06,53,14.20
2009,07,01,06,54,14.20
2009,07,01,06,55,14.20
2009,07,01,06,56,14.20
2009,07,01,06,57,14.20
2009,07,01,06,58,14.20
2009,07,01,06,59,14.20
2009,07,01,07,00,14.20
2009,07,01,07,01,14.20
2009,07,01,07,02,14.20
2009,07,01,07,03,14.20
2009,07,01,07,04,14.20
2009,07,01,07,05,14.20
2009,07,01,07,06,14.10
2009,07,01,07,07,14.00
2009,07,01,07,08,13.90
2009,07,01,07,09,13.80
2009,07,01,07,10,13.80
2009,07,01,07,11,13.80
2009,07,01,07,12,13.80
2009,07,01,07,13,13.80
2009,07,01,07,14,13.90
2009,07,01,07,15,13.90
2009,07,01,07,16,13.90
2009,07,01,07,17,13.90
2009,07,01,07,18,14.00
2009,07,01,07,19,14.10
2009,07,01,07,20,14.10
2009,07,01,07,21,14.20
2009,07,01,07,22,14.20
2009,07,01,07,23,14.20
2009,07,01,07,24,14.20
2009,07,01,07,25,14.20
2009,07,01,07,26,14.20
2009,07,01,07,27,14.20
2009,07,01,07,28,14.20
2009,07,01,07,29,14.30
2009,07,01,07,30,14.30
2009,07,01,07,31,14.20
2009,07,01,07,32,14.20
2009,07,01,07,33,14.20
2009,07,01,07,34,14.20
2009,07,01,07,35,14.20
2009,07,01,07,36,14.20
2009,07,01,07,37,14.20
2009,07,01,07,38,14.30
2009,07,01,07,39,14.40
2009,07,01,07,40,14.40
2009,07,01,07,41,14.50
2009,07,01,07,42,14.50
2009,07,01,07,43,14.50
2009,07,01,07,44,14.50
2009,07,01,07,45,14.60
2009,07,01,07,46,14.60
2009,07,01,07,47,14.60
2009,07,01,07,48,14.60
2009,07,01,07,49,14.60
2009,07,01,07,50,14.60
2009,07,01,07,51,14.70
2009,07,01,07,52,14.70
2009,07,01,07,53,14.70
2009,07,01,07,54,14.80
2009,07,01,07,55,14.80
2009,07,01,07,56,14.80
2009,07,01,07,57,14.80
2009,07,01,07,58,14.80
2009,07,01,07,59,14.80
2009,07,01,08,00,14.80
2009,07,01,08,01,14.80
2009,07,01,08,02,14.80
2009,07,01,08,03,14.80
2009,07,01,08,04,14.80
2009,07,01,08,05,14.80
2009,07,01,08,06,14.80
2009,07,01,08,07,14.80
2009,07,01,08,08,14.80
2009,07,01,08,09,14.80
2009,07,01,08,10,14.80
2009,07,01,08,11,14.80
2009,07,01,08,12,14.80
2009,07,01,08,13,14.80
2009,07,01,08,14,14.80
2009,07,01,08,15,14.80
2009,07,01,08,16,14.80
2009,07,01,08,17,14.80
2009,07,01,08,18,14.80
2009,07,01,08,19,14.90
2009,07,01,08,20,15.00
2009,07,01,08,21,15.00
2009,07,01,08,22,15.00
2009,07,01,08,23,14.90
2009,07,01,08,24,14.90
2009,07,01,08,25,14.90
2009,07,01,08,26,14.90
2009,07,01,08,27,14.90
2009,07,01,08,28,15.00
2009,07,01,08,29,15.00
2009,07,01,08,30,15.00
2009,07,01,08,31,15.10
2009,07,01,08,32,15.10
2009,07,01,08,33,15.20
2009,07,01,08,34,15.20
2009,07,01,08,35,15.30
2009,07,01,08,36,15.30
2009,07,01,08,37,15.30
2009,07,01,08,38,15.40
2009,07,01,08,39,15.50
2009,07,01,08,40,15.50
2009,07,01,08,41,15.50
2009,07,01,08,42,15.50
2009,07,01,08,43,15.50
2009,07,01,08,44,15.50
2009,07,01,08,45,15.40
2009,07,01,08,46,15.30
2009,07,01,08,47,15.40
2009,07,01,08,48,15.40
2009,07,01,08,49,15.40
2009,07,01,08,50,15.40
2009,07,01,08,51,15.40
2009,07,01,08,52,15.50
2009,07,01,08,53,15.50
2009,07,01,08,54,15.60
2009,07,01,08,55,15.60
2009,07,01,08,56,15.60
2009,07,01,08,57,15.60
2009,07,01,08,58,15.60
2009,07,01,08,59,15.60
2009,07,01,09,00,15.70
2009,07,01,09,01,15.80
2009,07,01,09,02,15.80
2009,07,01,09,03,15.70
2009,07,01,09,04,15.70
2009,07,01,09,05,15.70
2009,07,01,09,06,15.70
2009,07,01,09,07,15.70
2009,07,01,09,08,15.60
2009,07,01,09,09,15.60
2009,07,01,09,10,15.60
2009,07,01,09,11,15.60
2009,07,01,09,12,15.60
2009,07,01,09,13,15.60
2009,07,01,09,14,15.50
2009,07,01,09,15,15.50
2009,07,01,09,16,15.50
2009,07,01,09,17,15.50
2009,07,01,09,18,15.50
2009,07,01,09,19,15.60
2009,07,01,09,20,15.60
2009,07,01,09,21,15.60
2009,07,01,09,22,15.60
2009,07,01,09,23,15.50
2009,07,01,09,24,15.60
2009,07,01,09,25,15.60
2009,07,01,09,26,15.70
2009,07,01,09,27,15.80
2009,07,01,09,28,15.80
2009,07,01,09,29,15.90
2009,07,01,09,30,16.10
2009,07,01,09,31,16.10
2009,07,01,09,32,16.10
2009,07,01,09,33,16.20
2009,07,01,09,34,16.20
2009,07,01,09,35,16.30
2009,07,01,09,36,16.40
2009,07,01,09,37,16.40
2009,07,01,09,38,16.30
2009,07,01,09,39,16.30
2009,07,01,09,40,16.30
2009,07,01,09,41,16.30
2009,07,01,09,42,16.20
2009,07,01,09,43,16.10
2009,07,01,09,44,16.10
2009,07,01,09,45,16.00
2009,07,01,09,46,15.90
2009,07,01,09,47,15.90
2009,07,01,09,48,16.00
2009,07,01,09,49,16.10
2009,07,01,09,50,16.10
2009,07,01,09,51,16.10
2009,07,01,09,52,16.20
2009,07,01,09,53,16.30
2009,07,01,09,54,16.40
2009,07,01,09,55,16.40
2009,07,01,09,56,16.40
2009,07,01,09,57,16.40
2009,07,01,09,58,16.40
2009,07,01,09,59,16.60
2009,07,01,10,00,16.60
2009,07,01,10,01,16.60
2009,07,01,10,02,16.60
2009,07,01,10,03,16.60
2009,07,01,10,04,16.60
2009,07,01,10,05,16.60
2009,07,01,10,06,16.60
2009,07,01,10,07,16.50
2009,07,01,10,08,16.40
2009,07,01,10,09,16.40
2009,07,01,10,10,16.40
2009,07,01,10,11,16.40
2009,07,01,10,12,16.40
2009,07,01,10,13,16.40
2009,07,01,10,14,16.40
2009,07,01,10,15,16.40
2009,07,01,10,16,16.40
2009,07,01,10,17,16.40
2009,07,01,10,18,16.30
2009,07,01,10,19,16.40
2009,07,01,10,20,16.40
2009,07,01,10,21,16.40
2009,07,01,10,22,16.40
2009,07,01,10,23,16.40
2009,07,01,10,24,16.30
2009,07,01,10,25,16.20
2009,07,01,10,26,16.30
2009,07,01,10,27,16.30
2009,07,01,10,28,16.40
2009,07,01,10,29,16.40
2009,07,01,10,30,16.40
2009,07,01,10,31,16.60
2009,07,01,10,32,16.70
2009,07,01,10,33,16.70
2009,07,01,10,34,16.70
2009,07,01,10,35,16.70
2009,07,01,10,36,16.70
2009,07,01,10,37,16.70
2009,07,01,10,38,16.90
2009,07,01,10,39,17.00
2009,07,01,10,40,17.00
2009,07,01,10,41,17.20
2009,07,01,10,42,17.30
2009,07,01,10,43,17.40
2009,07,01,10,44,17.40
2009,07,01,10,45,17.40
2009,07,01,10,46,17.30
2009,07,01,10,47,17.30
2009,07,01,10,48,17.30
2009,07,01,10,49,17.30
2009,07,01,10,50,17.30
2009,07,01,10,51,17.30
2009,07,01,10,52,17.20
2009,07,01,10,53,17.20
2009,07,01,10,54,17.20
2009,07,01,10,55,17.20
2009,07,01,10,56,17.20
2009,07,01,10,57,17.20
2009,07,01,10,58,17.10
2009,07,01,10,59,17.10
2009,07,01,11,00,17.10
2009,07,01,11,01,17.00
2009,07,01,11,02,17.10
2009,07,01,11,03,17.20
2009,07,01,11,04,17.40
2009,07,01,11,05,17.40
2009,07,01,11,06,17.40
2009,07,01,11,07,17.40
2009,07,01,11,08,17.30
2009,07,01,11,09,17.30
2009,07,01,11,10,17.30
2009,07,01,11,11,17.30
2009,07,01,11,12,17.30
2009,07,01,11,13,17.30
2009,07,01,11,14,17.40
2009,07,01,11,15,17.50
2009,07,01,11,16,17.60
2009,07,01,11,17,17.60
2009,07,01,11,18,17.60
2009,07,01,11,19,17.60
2009,07,01,11,20,17.60
2009,07,01,11,21,17.60
2009,07,01,11,22,17.60
2009,07,01,11,23,17.50
2009,07,01,11,24,17.50
2009,07,01,11,25,17.70
2009,07,01,11,26,17.80
2009,07,01,11,27,17.90
2009,07,01,11,28,17.90
2009,07,01,11,29,18.00
2009,07,01,11,30,18.10
2009,07,01,11,31,18.10
2009,07,01,11,32,18.00
2009,07,01,11,33,17.90
2009,07,01,11,34,17.90
2009,07,01,11,35,17.80
2009,07,01,11,36,17.80
2009,07,01,11,37,17.90
2009,07,01,11,38,17.90
2009,07,01,11,39,17.90
2009,07,01,11,40,17.90
2009,07,01,11,41,18.00
2009,07,01,11,42,17.90
2009,07,01,11,43,18.00
2009,07,01,11,44,18.10
2009,07,01,11,45,18.20
2009,07,01,11,46,18.30
2009,07,01,11,47,18.30
2009,07,01,11,48,18.40
2009,07,01,11,49,18.30
2009,07,01,11,50,18.30
2009,07,01,11,51,18.20
2009,07,01,11,52,18.20
2009,07,01,11,53,18.20
2009,07,01,11,54,18.20
2009,07,01,11,55,18.30
2009,07,01,11,56,18.30
2009,07,01,11,57,18.30
2009,07,01,11,58,18.40
2009,07,01,11,59,18.40
2009,07,01,12,00,18.40
2009,07,01,12,01,18.50
2009,07,01,12,02,18.60
2009,07,01,12,03,18.60
2009,07,01,12,04,18.60
2009,07,01,12,05,18.60
2009,07,01,12,06,18.60
2009,07,01,12,07,18.60
2009,07,01,12,08,18.60
2009,07,01,12,09,18.50
2009,07,01,12,10,18.40
2009,07,01,12,11,18.40
2009,07,01,12,12,18.40
2009,07,01,12,13,18.50
2009,07,01,12,14,18.60
2009,07,01,12,15,18.60
2009,07,01,12,16,18.50
2009,07,01,12,17,18.40
2009,07,01,12,18,18.30
2009,07,01,12,19,18.30
2009,07,01,12,20,18.30
2009,07,01,12,21,18.30
2009,07,01,12,22,18.30
2009,07,01,12,23,18.50
2009,07,01,12,24,18.60
2009,07,01,12,25,18.70
2009,07,01,12,26,18.80
2009,07,01,12,27,18.90
2009,07,01,12,28,18.90
2009,07,01,12,29,18.90
2009,07,01,12,30,18.90
2009,07,01,12,31,18.90
2009,07,01,12,32,18.90
2009,07,01,12,33,18.90
2009,07,01,12,34,18.90
2009,07,01,12,35,18.90
2009,07,01,12,36,18.90
2009,07,01,12,37,18.90
2009,07,01,12,38,18.90
2009,07,01,12,39,19.00
2009,07,01,12,40,19.10
2009,07,01,12,41,19.10
2009,07,01,12,42,19.20
2009,07,01,12,43,19.20
2009,07,01,12,44,19.30
2009,07,01,12,45,19.30
2009,07,01,12,46,19.20
2009,07,01,12,47,19.20
2009,07,01,12,48,19.20
2009,07,01,12,49,19.20
2009,07,01,12,50,19.10
2009,07,01,12,51,19.00
2009,07,01,12,52,18.90
2009,07,01,12,53,18.90
2009,07,01,12,54,18.90
2009,07,01,12,55,18.80
2009,07,01,12,56,18.70
2009,07,01,12,57,18.60
2009,07,01,12,58,18.60
2009,07,01,12,59,18.50
2009,07,01,13,00,18.40
2009,07,01,13,01,18.40
2009,07,01,13,02,18.40
2009,07,01,13,03,18.50
2009,07,01,13,04,18.40
2009,07,01,13,05,18.30
2009,07,01,13,06,18.30
2009,07,01,13,07,18.20
2009,07,01,13,08,18.20
2009,07,01,13,09,18.20
2009,07,01,13,10,18.30
2009,07,01,13,11,18.30
2009,07,01,13,12,18.30
2009,07,01,13,13,18.40
2009,07,01,13,14,18.40
2009,07,01,13,15,18.40
2009,07,01,13,16,18.40
2009,07,01,13,17,18.50
2009,07,01,13,18,18.50
2009,07,01,13,19,18.60
2009,07,01,13,20,18.70
2009,07,01,13,21,18.70
2009,07,01,13,22,18.70
2009,07,01,13,23,18.80
2009,07,01,13,24,18.80
2009,07,01,13,25,19.00
2009,07,01,13,26,19.10
2009,07,01,13,27,19.00
2009,07,01,13,28,18.90
2009,07,01,13,29,18.80
2009,07,01,13,30,18.70
2009,07,01,13,31,18.80
2009,07,01,13,32,18.80
2009,07,01,13,33,18.90
2009,07,01,13,34,18.90
2009,07,01,13,35,18.90
2009,07,01,13,36,18.90
2009,07,01,13,37,18.90
2009,07,01,13,38,18.90
2009,07,01,13,39,18.90
2009,07,01,13,40,18.90
2009,07,01,13,41,18.80
2009,07,01,13,42,18.70
2009,07,01,13,43,18.70
2009,07,01,13,44,18.60
2009,07,01,13,45,18.60
2009,07,01,13,46,18.50
2009,07,01,13,47,18.50
2009,07,01,13,48,18.50
2009,07,01,13,49,18.50
2009,07,01,13,50,18.50
2009,07,01,13,51,18.60
2009,07,01,13,52,18.70
2009,07,01,13,53,18.70
2009,07,01,13,54,18.80
2009,07,01,13,55,18.90
2009,07,01,13,56,18.90
2009,07,01,13,57,18.80
2009,07,01,13,58,18.80
2009,07,01,13,59,18.90
2009,07,01,14,00,18.90
2009,07,01,14,01,18.90
2009,07,01,14,02,18.90
2009,07,01,14,03,18.80
2009,07,01,14,04,18.80
2009,07,01,14,05,18.70
2009,07,01,14,06,18.80
2009,07,01,14,07,18.70
2009,07,01,14,08,18.70
2009,07,01,14,09,18.80
2009,07,01,14,10,18.80
2009,07,01,14,11,18.80
2009,07,01,14,12,18.90
2009,07,01,14,13,19.10
2009,07,01,14,14,19.10
2009,07,01,14,15,19.30
2009,07,01,14,16,19.30
2009,07,01,14,17,19.40
2009,07,01,14,18,19.50
2009,07,01,14,19,19.60
2009,07,01,14,20,19.60
2009,07,01,14,21,19.50
2009,07,01,14,22,19.40
2009,07,01,14,23,19.40
2009,07,01,14,24,19.40
2009,07,01,14,25,19.30
2009,07,01,14,26,19.20
2009,07,01,14,27,19.10
2009,07,01,14,28,19.10
2009,07,01,14,29,18.90
2009,07,01,14,30,18.90
2009,07,01,14,31,18.90
2009,07,01,14,32,19.10
2009,07,01,14,33,19.30
2009,07,01,14,34,19.30
2009,07,01,14,35,19.30
2009,07,01,14,36,19.40
2009,07,01,14,37,19.30
2009,07,01,14,38,19.30
2009,07,01,14,39,19.20
2009,07,01,14,40,19.30
2009,07,01,14,41,19.40
2009,07,01,14,42,19.70
2009,07,01,14,43,19.80
2009,07,01,14,44,19.80
2009,07,01,14,45,19.90
2009,07,01,14,46,20.00
2009,07,01,14,47,20.20
2009,07,01,14,48,20.20
2009,07,01,14,49,20.10
2009,07,01,14,50,20.10
2009,07,01,14,51,20.10
2009,07,01,14,52,20.10
2009,07,01,14,53,20.10
2009,07,01,14,54,20.10
2009,07,01,14,55,19.90
2009,07,01,14,56,19.90
2009,07,01,14,57,19.90
2009,07,01,14,58,20.00
2009,07,01,14,59,20.10
2009,07,01,15,00,20.20
2009,07,01,15,01,20.20
2009,07,01,15,02,20.20
2009,07,01,15,03,20.20
2009,07,01,15,04,20.20
2009,07,01,15,05,20.20
2009,07,01,15,06,20.20
2009,07,01,15,07,20.10
2009,07,01,15,08,20.20
2009,07,01,15,09,20.30
2009,07,01,15,10,20.40
2009,07,01,15,11,20.50
2009,07,01,15,12,20.50
2009,07,01,15,13,20.60
2009,07,01,15,14,20.60
2009,07,01,15,15,20.80
2009,07,01,15,16,20.90
2009,07,01,15,17,21.10
2009,07,01,15,18,21.20
2009,07,01,15,19,21.30
2009,07,01,15,20,21.30
2009,07,01,15,21,21.30
2009,07,01,15,22,21.30
2009,07,01,15,23,21.30
2009,07,01,15,24,21.40
2009,07,01,15,25,21.40
2009,07,01,15,26,21.30
2009,07,01,15,27,21.20
2009,07,01,15,28,21.10
2009,07,01,15,29,21.10
2009,07,01,15,30,21.10
2009,07,01,15,31,21.10
2009,07,01,15,32,21.10
2009,07,01,15,33,21.20
2009,07,01,15,34,21.20
2009,07,01,15,35,21.10
2009,07,01,15,36,21.10
2009,07,01,15,37,21.10
2009,07,01,15,38,21.00
2009,07,01,15,39,21.00
2009,07,01,15,40,21.10
2009,07,01,15,41,21.20
2009,07,01,15,42,21.30
2009,07,01,15,43,21.30
2009,07,01,15,44,21.30
2009,07,01,15,45,21.40
2009,07,01,15,46,21.60
2009,07,01,15,47,21.70
2009,07,01,15,48,21.80
2009,07,01,15,49,21.90
2009,07,01,15,50,21.90
2009,07,01,15,51,21.90
2009,07,01,15,52,22.00
2009,07,01,15,53,22.10
2009,07,01,15,54,22.10
2009,07,01,15,55,22.10
2009,07,01,15,56,22.10
2009,07,01,15,57,22.20
2009,07,01,15,58,22.20
2009,07,01,15,59,22.20
2009,07,01,16,00,22.20
2009,07,01,16,01,22.20
2009,07,01,16,02,22.20
2009,07,01,16,03,22.20
2009,07,01,16,04,22.10
2009,07,01,16,05,22.10
2009,07,01,16,06,22.10
2009,07,01,16,07,22.00
2009,07,01,16,08,22.10
2009,07,01,16,09,22.20
2009,07,01,16,10,22.30
2009,07,01,16,11,22.30
2009,07,01,16,12,22.40
2009,07,01,16,13,22.50
2009,07,01,16,14,22.60
2009,07,01,16,15,22.70
2009,07,01,16,16,22.80
2009,07,01,16,17,22.80
2009,07,01,16,18,22.80
2009,07,01,16,19,22.80
2009,07,01,16,20,22.70
2009,07,01,16,21,22.70
2009,07,01,16,22,22.80
2009,07,01,16,23,22.80
2009,07,01,16,24,22.90
2009,07,01,16,25,22.90
2009,07,01,16,26,22.80
2009,07,01,16,27,22.70
2009,07,01,16,28,22.70
2009,07,01,16,29,22.70
2009,07,01,16,30,22.70
2009,07,01,16,31,22.80
2009,07,01,16,32,22.80
2009,07,01,16,33,22.80
2009,07,01,16,34,22.80
2009,07,01,16,35,22.80
2009,07,01,16,36,22.80
2009,07,01,16,37,22.90
2009,07,01,16,38,22.90
2009,07,01,16,39,23.10
2009,07,01,16,40,23.10
2009,07,01,16,41,23.10
2009,07,01,16,42,23.10
2009,07,01,16,43,23.00
2009,07,01,16,44,22.90
2009,07,01,16,45,22.90
2009,07,01,16,46,22.90
2009,07,01,16,47,22.90
2009,07,01,16,48,22.90
2009,07,01,16,49,22.90
2009,07,01,16,50,22.90
2009,07,01,16,51,23.00
2009,07,01,16,52,23.10
2009,07,01,16,53,23.10
2009,07,01,16,54,23.20
2009,07,01,16,55,23.20
2009,07,01,16,56,23.20
2009,07,01,16,57,23.20
2009,07,01,16,58,23.20
2009,07,01,16,59,23.20
2009,07,01,17,00,23.30
2009,07,01,17,01,23.30
2009,07,01,17,02,23.20
2009,07,01,17,03,23.10
2009,07,01,17,04,23.10
2009,07,01,17,05,23.00
2009,07,01,17,06,23.10
2009,07,01,17,07,23.10
2009,07,01,17,08,23.20
2009,07,01,17,09,23.30
2009,07,01,17,10,23.30
2009,07,01,17,11,23.30
2009,07,01,17,12,23.40
2009,07,01,17,13,23.50
2009,07,01,17,14,23.60
2009,07,01,17,15,23.70
2009,07,01,17,16,23.80
2009,07,01,17,17,23.90
2009,07,01,17,18,24.00
2009,07,01,17,19,24.10